Location: Devore Heights
(34.2372°N, 117.4156°W)
Time: 22:44:09
(UTC+00:00)

Transit 2A - Visible Passes

Search period start: 11 September 2024 00:00
Search period end: 21 September 2024 00:00
Orbit: 590 x 961 km, 66.7° (Epoch: 10 September)

Date Brightness Start Highest point End Pass type
(mag) Time Alt. Az. Time Alt. Az. Time Alt. Az.
11 Sep 7.1 03:28:49 10° SW 03:34:24 53° WNW 03:40:29 10° NNE visible
11 Sep 9.4 10:39:22 10° NNE 10:40:55 11° NE 10:42:27 10° NE visible
11 Sep 6.8 12:19:15 10° NNW 12:25:24 64° ENE 12:31:02 10° SE visible
12 Sep 6.5 02:53:15 10° SSW 02:58:57 79° WNW 03:05:11 10° NNE visible
12 Sep 9.3 04:40:22 10° WNW 04:43:12 13° NW 04:46:05 10° NNW visible
12 Sep 7.5 11:44:02 10° NNW 11:49:54 43° ENE 11:55:19 10° SE visible
13 Sep 6.3 02:17:56 10° SSW 02:23:35 71° ESE 02:29:45 10° NNE visible
13 Sep 8.9 04:03:17 10° W 04:07:24 19° NW 04:11:41 10° N visible
13 Sep 8.1 11:08:56 10° N 11:14:18 30° NE 11:19:19 10° ESE visible
13 Sep 6.7 12:51:57 10° NW 12:57:32 39° WSW 13:02:39 10° S visible
14 Sep 8.5 03:26:47 10° WSW 03:31:41 27° NW 03:36:51 10° N visible
14 Sep 8.6 10:34:01 10° N 10:38:37 21° NE 10:42:57 10° E visible
14 Sep 6.2 12:16:16 10° NW 12:22:16 60° WSW 12:27:45 10° S visible
15 Sep 7.9 02:50:40 10° WSW 02:56:03 38° NW 03:01:49 10° N visible
15 Sep 9.0 09:59:26 10° NNE 10:02:50 15° NE 10:06:07 10° E visible
15 Sep 6.2 11:40:45 10° NNW 11:46:55 90° WSW 11:52:32 10° SSE visible
16 Sep 7.2 02:14:50 10° SW 02:20:29 55° WNW 02:26:38 10° NNE visible
16 Sep 9.3 09:26:02 10° NNE 09:26:58 10° NE 09:27:54 10° NE visible
16 Sep 6.7 11:05:23 10° NNW 11:11:29 61° ENE 11:17:02 10° SE visible
16 Sep 7.6 12:50:18 10° WNW 12:53:55 17° WSW 12:57:21 10° SW visible
17 Sep 9.2 03:26:11 10° WNW 03:29:14 14° NW 03:32:21 10° NNW visible
17 Sep 7.4 10:30:09 10° NNW 10:35:57 41° ENE 10:41:16 10° SE visible
17 Sep 7.1 12:13:55 10° NW 12:18:47 26° WSW 12:23:19 10° SSW visible
18 Sep 9.0 02:49:10 10° W 02:53:25 20° NW 02:57:51 10° N visible
18 Sep 8.9 09:55:04 10° N 09:55:42 12° N 09:55:42 12° N visible
18 Sep8.711:49:50S11:49:50S11:35:55NWvisible
19 Sep 8.5 02:12:41 10° WSW 02:17:41 28° NW 02:23:00 10° N visible
